Flag for Germany Weather past 2 weeks in Alsdorf, North Rhine-Westphalia, Germany

Now
55 °F

Refreshingly cool.


Feels Like: 52 °F
Forecast: 36 / 57 °F
Wind: 14 mph from Northeast

Location: Maastricht Airport Zuid Limburg

Current Time: Apr 18, 2015 at 2:27:01 PM

Latest Report: Apr 18, 2015 at 1:55 PM


Visibility: N/A

Pressure: 30.30 "Hg

Humidity: 41%

Dew point: 32 °F

Location of AlsdorfLocation

Historic Weather in Alsdorf — Graph

°F

Alsdorf temperature yesterday

Maximum temperature yesterday: 55 °F (at 12:55 PM)
Minimum temperature yesterday: 43 °F (at 5:25 AM)
Average temperature yesterday: 49 °F

Past Weeks' High & Low Weather Summary

 TemperatureHumidityPressure
High75 °F (Apr 15, 3:55 PM)100% (Apr 7, 1:25 AM)30.63 "Hg (Apr 7, 1:25 AM)
Low32 °F (Apr 5, 7:55 AM)28% (Apr 10, 2:25 PM)29.92 "Hg (Apr 15, 7:55 PM)
Average50 °F67%30.24 "Hg
* Reported Apr 3 1:25 PM — Apr 18 1:25 PM, Alsdorf, Weather by CustomWeather, © 2015

Note: Actual official high and low records may vary slightly from our data, if they occured in-between our weather recording intervals... More about our weather records

Advertising

Alsdorf weather history for previous 24 hours

 ConditionsComfort  
Time TempWeatherWind HumidityBarometerVisibility
1:25 PM
Sat, Apr 18
54 °FCool.16 mph44%30.30 "HgN/A
12:55 PM52 °FCool.16 mph44%30.33 "HgN/A
12:25 PM54 °FScattered clouds.15 mph44%30.33 "HgN/A
11:55 AM54 °FPassing clouds.16 mph47%30.33 "HgN/A
11:25 AM52 °FPassing clouds.13 mph50%30.33 "HgN/A
10:55 AM50 °FCool.12 mph62%30.33 "HgN/A
10:25 AM46 °FCool.8 mph71%30.33 "HgN/A
9:55 AM45 °FQuite cool.9 mph76%30.33 "HgN/A
9:25 AM43 °FQuite cool.9 mph81%30.30 "HgN/A
8:55 AM43 °FQuite cool.7 mph76%30.30 "HgN/A
8:25 AM41 °FQuite cool.6 mph81%30.30 "HgN/A
7:55 AM39 °FChilly.5 mph87%30.30 "HgN/A
7:25 AM37 °FChilly.6 mph87%30.27 "HgN/A
6:55 AM36 °FChilly.6 mph87%30.27 "HgN/A
6:25 AM34 °FChilly.6 mph93%30.27 "HgN/A
5:55 AM36 °FChilly.7 mph87%30.27 "HgN/A
4:55 AM36 °FChilly.6 mph87%30.24 "HgN/A
4:25 AM36 °FChilly.7 mph87%30.24 "HgN/A
3:55 AM37 °FChilly.7 mph87%30.24 "HgN/A
3:25 AM39 °FChilly.8 mph81%30.24 "HgN/A
2:55 AM39 °FChilly.9 mph81%30.24 "HgN/A
2:25 AM41 °FQuite cool.9 mph76%30.24 "HgN/A
1:55 AM41 °FQuite cool.10 mph76%30.24 "HgN/A
1:25 AM43 °FQuite cool.10 mph71%30.21 "HgN/A
12:55 AM43 °FQuite cool.12 mph71%30.21 "HgN/A
12:25 AM45 °FQuite cool.10 mph61%30.21 "HgN/A
11:55 PM
Fri, Apr 17
45 °FQuite cool.10 mph61%30.18 "HgN/A
11:25 PM46 °FCool.12 mph57%30.18 "HgN/A
10:55 PM46 °FCool.14 mph57%30.18 "HgN/A
10:25 PM46 °FCool.12 mph57%30.15 "HgN/A
9:55 PM48 °FCool.10 mph54%30.15 "HgN/A
9:25 PM48 °FCool.9 mph54%30.12 "HgN/A
8:55 PM50 °FClear.10 mph54%30.12 "HgN/A
8:25 PM50 °FPassing clouds.13 mph50%30.09 "HgN/A
7:55 PM52 °FPassing clouds.14 mph50%30.09 "HgN/A
7:25 PM54 °FClear.12 mph47%30.09 "HgN/A
6:55 PM55 °FOvercast.15 mph44%30.07 "HgN/A
6:25 PM52 °FClear.14 mph47%30.07 "HgN/A
5:55 PM54 °FPartly sunny.15 mph47%30.07 "HgN/A
5:25 PM55 °FPassing clouds.15 mph47%30.07 "HgN/A
4:55 PM54 °FScattered clouds.15 mph51%30.07 "HgN/A
4:25 PM54 °FPartly sunny.13 mph54%30.07 "HgN/A
3:55 PM54 °FPassing clouds.13 mph54%30.07 "HgN/A
3:25 PM55 °FPassing clouds.14 mph55%30.07 "HgN/A
2:55 PM55 °FClear.16 mph51%30.07 "HgN/A
2:25 PM55 °FClear.16 mph55%30.07 "HgN/A
Weather by CustomWeather, © 2015

See weather overviewHow to use our weather pages